Flag for U.S.A. Weather past 2 weeks in Fort Bragg, California, U.S.A.

Now
86 °F

Sunny.


Feels Like: 84 °F
Forecast: 54 / 66 °F
Wind: 8 mph from West

Location: Ukiah Municipal

Current Time: Jul 6, 2015 at 6:27:39 PM

Latest Report: Jul 6, 2015 at 5:56 PM


Visibility: 10 mi

Pressure: 29.94 "Hg

Humidity: 31%

Dew point: 52 °F

Location of Fort BraggLocation

Historic Weather in Fort Bragg — Graph

°F

Fort Bragg temperature yesterday

Maximum temperature yesterday: 90 °F (at 2:56 PM)
Minimum temperature yesterday: 58 °F (at 4:56 AM)
Average temperature yesterday: 73 °F

Past Weeks' High & Low Weather Summary

 TemperatureHumidityPressure
High106 °F (Jun 30, 2:56 PM)90% (Jun 29, 5:56 AM)30.06 "Hg (Jun 29, 5:56 AM)
Low49 °F (Jun 22, 5:56 AM)13% (Jun 21, 4:56 PM)29.72 "Hg (Jul 4, 3:56 PM)
Average77 °F45%29.89 "Hg
* Reported Jun 21 4:56 PM — Jul 6 4:56 PM, Fort Bragg, Weather by CustomWeather, © 2015

Note: Actual official high and low records may vary slightly from our data, if they occured in-between our weather recording intervals... More about our weather records

Advertising

Fort Bragg weather history for previous 24 hours

 ConditionsComfort  
Time TempWeatherWind HumidityBarometerVisibility
4:56 PM
Mon, Jul 6
88 °FSunny.8 mph30%29.94 "Hg10 mi
3:56 PM88 °FSunny.10 mph30%29.96 "Hg10 mi
2:56 PM88 °FSunny.7 mph29%29.97 "Hg10 mi
1:56 PM88 °FSunny.7 mph31%29.98 "Hg10 mi
12:56 PM83 °FSunny.No wind40%30.01 "Hg10 mi
11:56 AM79 °FSunny.No wind47%30.03 "Hg10 mi
10:56 AM71 °FSunny.3 mph63%30.04 "Hg10 mi
9:56 AM68 °FSunny.5 mph68%30.05 "Hg10 mi
8:56 AM64 °FPassing clouds.5 mph75%30.05 "Hg10 mi
7:56 AM61 °FOvercast.5 mph81%30.05 "Hg10 mi
7:03 AM61 °FLow clouds.5 mph81%30.06 "Hg10 mi
6:56 AM60 °FOvercast.7 mph83%30.03 "Hg10 mi
5:56 AM59 °FPassing clouds.7 mph87%30.01 "Hg10 mi
4:56 AM59 °FClear.7 mph84%29.99 "Hg10 mi
3:56 AM60 °FClear.7 mph80%29.98 "Hg10 mi
2:56 AM62 °FClear.5 mph78%29.96 "Hg10 mi
1:56 AM63 °FClear.9 mph75%29.95 "Hg10 mi
12:56 AM65 °FClear.5 mph70%29.94 "Hg10 mi
11:56 PM
Sun, Jul 5
68 °FClear.6 mph65%29.93 "Hg10 mi
10:56 PM71 °FClear.3 mph61%29.93 "Hg10 mi
9:56 PM74 °FClear.3 mph53%29.92 "Hg10 mi
8:56 PM76 °FSunny.6 mph52%29.90 "Hg10 mi
7:56 PM80 °FSunny.8 mph45%29.88 "Hg10 mi
6:56 PM85 °FSunny.5 mph42%29.86 "Hg10 mi
Weather by CustomWeather, © 2015

See weather overviewHow to use our weather pages